Time,TemperatureF,DewpointF,PressureIn,WindDirection,WindDirectionDegrees,WindSpeedMPH,WindSpeedGustMPH,Humidity,HourlyPrecipIn,Conditions,Clouds,dailyrainin,SoftwareType,DateUTC
2013-02-26 00:29:00,30.7,26.0,30.21,NE,49,0.0,0.0,82,0.00,,,0.00,weatherlink.com 1.10,2013-02-26 05:29:00,
2013-02-26 00:44:00,30.3,26.0,30.20,NE,49,0.0,0.0,83,0.00,,,0.00,weatherlink.com 1.10,2013-02-26 05:44:00,
2013-02-26 00:59:00,29.8,26.0,30.20,NE,49,0.0,0.0,84,0.00,,,0.00,weatherlink.com 1.10,2013-02-26 05:59:00,
2013-02-26 01:14:00,29.2,25.0,30.21,NE,49,1.0,1.0,85,0.00,,,0.00,weatherlink.com 1.10,2013-02-26 06:14:00,
2013-02-26 01:29:00,29.1,25.0,30.22,NE,49,0.0,0.0,85,0.00,,,0.00,weatherlink.com 1.10,2013-02-26 06:29:00,
2013-02-26 01:44:00,28.8,25.0,30.23,NE,49,0.0,0.0,86,0.00,,,0.00,weatherlink.com 1.10,2013-02-26 06:44:00,
2013-02-26 01:59:00,28.5,25.0,30.24,NE,49,0.0,1.0,86,0.00,,,0.00,weatherlink.com 1.10,2013-02-26 06:59:00,
2013-02-26 02:14:00,28.3,25.0,30.25,NE,49,0.0,0.0,86,0.00,,,0.00,weatherlink.com 1.10,2013-02-26 07:14:00,
2013-02-26 02:29:00,28.0,24.0,30.24,NE,49,0.0,0.0,86,0.00,,,0.00,weatherlink.com 1.10,2013-02-26 07:29:00,
2013-02-26 02:45:00,27.8,24.0,30.26,NE,49,0.0,0.0,87,0.00,,,0.00,weatherlink.com 1.10,2013-02-26 07:45:00,
2013-02-26 03:00:00,27.5,24.0,30.24,NE,49,0.0,2.0,87,0.00,,,0.00,weatherlink.com 1.10,2013-02-26 08:00:00,
2013-02-26 03:15:00,27.4,24.0,30.23,NE,49,0.0,0.0,87,0.00,,,0.00,weatherlink.com 1.10,2013-02-26 08:15:00,
2013-02-26 03:30:00,27.1,24.0,30.24,NE,49,0.0,1.0,88,0.00,,,0.00,weatherlink.com 1.10,2013-02-26 08:30:00,
2013-02-26 03:45:00,27.1,24.0,30.23,NE,49,0.0,0.0,88,0.00,,,0.00,weatherlink.com 1.10,2013-02-26 08:45:00,
2013-02-26 04:00:00,26.7,24.0,30.23,NE,49,0.0,1.0,89,0.00,,,0.00,weatherlink.com 1.10,2013-02-26 09:00:00,
2013-02-26 04:16:00,26.5,24.0,30.24,NE,49,0.0,0.0,89,0.00,,,0.00,weatherlink.com 1.10,2013-02-26 09:16:00,
2013-02-26 04:30:00,26.4,24.0,30.24,NE,49,0.0,0.0,89,0.00,,,0.00,weatherlink.com 1.10,2013-02-26 09:30:00,
2013-02-26 04:45:00,26.3,24.0,30.25,NE,49,0.0,0.0,89,0.00,,,0.00,weatherlink.com 1.10,2013-02-26 09:45:00,
2013-02-26 05:00:00,26.0,23.0,30.25,NE,49,0.0,0.0,89,0.00,,,0.00,weatherlink.com 1.10,2013-02-26 10:00:00,
2013-02-26 05:15:00,25.8,23.0,30.26,NE,49,0.0,0.0,90,0.00,,,0.00,weatherlink.com 1.10,2013-02-26 10:15:00,
2013-02-26 05:30:00,25.6,23.0,30.26,NE,49,0.0,0.0,90,0.00,,,0.00,weatherlink.com 1.10,2013-02-26 10:30:00,
2013-02-26 05:45:00,25.4,23.0,30.26,NE,49,0.0,0.0,90,0.00,,,0.00,weatherlink.com 1.10,2013-02-26 10:45:00,
2013-02-26 06:00:00,25.4,23.0,30.25,NE,49,0.0,0.0,91,0.00,,,0.00,weatherlink.com 1.10,2013-02-26 11:00:00,
2013-02-26 06:15:00,25.5,23.0,30.25,NE,49,0.0,0.0,91,0.00,,,0.00,weatherlink.com 1.10,2013-02-26 11:15:00,
2013-02-26 06:30:00,25.5,23.0,30.25,NE,49,0.0,0.0,91,0.00,,,0.00,weatherlink.com 1.10,2013-02-26 11:30:00,
2013-02-26 06:45:00,25.4,23.0,30.27,NE,49,0.0,0.0,91,0.00,,,0.00,weatherlink.com 1.10,2013-02-26 11:45:00,
2013-02-26 07:00:00,25.6,23.0,30.26,NE,49,0.0,0.0,91,0.00,,,0.00,weatherlink.com 1.10,2013-02-26 12:00:00,
2013-02-26 07:15:00,25.6,23.0,30.26,NE,49,0.0,0.0,91,0.00,,,0.00,weatherlink.com 1.10,2013-02-26 12:15:00,
2013-02-26 07:30:00,25.6,24.0,30.25,NE,49,0.0,0.0,92,0.00,,,0.00,weatherlink.com 1.10,2013-02-26 12:30:00,
2013-02-26 07:45:00,26.8,24.0,30.26,NE,49,0.0,1.0,90,0.00,,,0.00,weatherlink.com 1.10,2013-02-26 12:45:00,
2013-02-26 08:00:00,27.9,25.0,30.27,NE,49,0.0,0.0,90,0.00,,,0.00,weatherlink.com 1.10,2013-02-26 13:00:00,
2013-02-26 08:15:00,29.2,26.0,30.28,NE,50,1.0,1.0,87,0.00,,,0.00,weatherlink.com 1.10,2013-02-26 13:15:00,
2013-02-26 08:30:00,30.8,27.0,30.28,SE,132,0.0,1.0,86,0.00,,,0.00,weatherlink.com 1.10,2013-02-26 13:30:00,
2013-02-26 08:45:00,31.1,26.0,30.27,East,88,0.0,1.0,82,0.00,,,0.00,weatherlink.com 1.10,2013-02-26 13:45:00,
2013-02-26 09:00:00,32.1,27.0,30.27,SW,227,2.0,2.0,80,0.00,,,0.00,weatherlink.com 1.10,2013-02-26 14:00:00,
2013-02-26 09:16:00,32.3,27.0,30.27,SSW,193,1.0,4.0,80,0.00,,,0.00,weatherlink.com 1.10,2013-02-26 14:16:00,
2013-02-26 09:30:00,33.2,27.0,30.28,SSW,193,0.0,3.0,79,0.00,,,0.00,weatherlink.com 1.10,2013-02-26 14:30:00,
2013-02-26 09:45:00,34.1,28.0,30.29,SW,234,1.0,4.0,79,0.00,,,0.00,weatherlink.com 1.10,2013-02-26 14:45:00,
2013-02-26 10:01:00,34.8,28.0,30.28,SW,220,0.0,4.0,77,0.00,,,0.00,weatherlink.com 1.10,2013-02-26 15:01:00,
2013-02-26 10:16:00,36.2,28.0,30.28,South,174,3.0,5.0,73,0.00,,,0.00,weatherlink.com 1.10,2013-02-26 15:16:00,
2013-02-26 10:31:00,37.0,27.0,30.28,SE,142,3.0,7.0,67,0.00,,,0.00,weatherlink.com 1.10,2013-02-26 15:31:00,
2013-02-26 10:46:00,37.4,27.0,30.27,ENE,76,2.0,6.0,65,0.00,,,0.00,weatherlink.com 1.10,2013-02-26 15:46:00,
2013-02-26 11:01:00,37.3,26.0,30.26,SW,216,3.0,4.0,65,0.00,,,0.00,weatherlink.com 1.10,2013-02-26 16:01:00,
2013-02-26 11:16:00,37.2,25.0,30.26,NW,304,0.0,8.0,62,0.00,,,0.00,weatherlink.com 1.10,2013-02-26 16:16:00,
2013-02-26 11:31:00,38.5,27.0,30.26,SSW,213,0.0,8.0,63,0.00,,,0.00,weatherlink.com 1.10,2013-02-26 16:31:00,
2013-02-26 11:46:00,37.7,26.0,30.26,SW,218,1.0,7.0,62,0.00,,,0.00,weatherlink.com 1.10,2013-02-26 16:46:00,
2013-02-26 12:01:00,38.1,26.0,30.26,WSW,244,2.0,6.0,61,0.00,,,0.00,weatherlink.com 1.10,2013-02-26 17:01:00,
2013-02-26 12:16:00,38.1,26.0,30.25,SSE,162,0.0,7.0,61,0.00,,,0.00,weatherlink.com 1.10,2013-02-26 17:16:00,
2013-02-26 12:31:00,37.5,25.0,30.24,SSW,205,1.0,6.0,62,0.00,,,0.00,weatherlink.com 1.10,2013-02-26 17:31:00,
2013-02-26 12:46:00,38.6,26.0,30.24,East,88,5.0,7.0,61,0.00,,,0.00,weatherlink.com 1.10,2013-02-26 17:46:00,
2013-02-26 13:01:00,38.1,26.0,30.22,SSW,202,4.0,5.0,62,0.00,,,0.00,weatherlink.com 1.10,2013-02-26 18:01:00,
2013-02-26 13:16:00,38.8,26.0,30.21,SW,236,1.0,6.0,60,0.00,,,0.00,weatherlink.com 1.10,2013-02-26 18:16:00,
2013-02-26 13:31:00,38.7,26.0,30.20,SE,142,4.0,7.0,60,0.00,,,0.00,weatherlink.com 1.10,2013-02-26 18:31:00,
2013-02-26 13:46:00,38.9,26.0,30.20,SE,139,2.0,7.0,60,0.00,,,0.00,weatherlink.com 1.10,2013-02-26 18:46:00,
2013-02-26 14:01:00,38.7,25.0,30.19,South,176,2.0,6.0,59,0.00,,,0.00,weatherlink.com 1.10,2013-02-26 19:01:00,
2013-02-26 14:16:00,38.4,25.0,30.19,West,261,1.0,8.0,58,0.00,,,0.00,weatherlink.com 1.10,2013-02-26 19:16:00,
2013-02-26 14:31:00,38.6,25.0,30.19,SSW,200,0.0,7.0,59,0.00,,,0.00,weatherlink.com 1.10,2013-02-26 19:31:00,
2013-02-26 14:46:00,38.7,26.0,30.18,SE,124,2.0,7.0,60,0.00,,,0.00,weatherlink.com 1.10,2013-02-26 19:46:00,
2013-02-26 15:01:00,38.3,25.0,30.18,WSW,247,4.0,6.0,59,0.00,,,0.00,weatherlink.com 1.10,2013-02-26 20:01:00,
2013-02-26 15:16:00,38.2,26.0,30.19,SW,230,5.0,6.0,61,0.00,,,0.00,weatherlink.com 1.10,2013-02-26 20:16:00,
2013-02-26 15:31:00,38.0,25.0,30.18,SW,216,4.0,8.0,60,0.00,,,0.00,weatherlink.com 1.10,2013-02-26 20:31:00,
2013-02-26 15:46:00,37.9,25.0,30.18,South,188,2.0,7.0,60,0.00,,,0.00,weatherlink.com 1.10,2013-02-26 20:46:00,
2013-02-26 16:01:00,37.7,25.0,30.16,WSW,246,4.0,8.0,61,0.00,,,0.00,weatherlink.com 1.10,2013-02-26 21:01:00,
2013-02-26 16:16:00,37.5,25.0,30.16,SSE,165,1.0,8.0,61,0.00,,,0.00,weatherlink.com 1.10,2013-02-26 21:16:00,
2013-02-26 16:31:00,37.4,25.0,30.16,West,259,3.0,6.0,61,0.00,,,0.00,weatherlink.com 1.10,2013-02-26 21:31:00,
2013-02-26 16:46:00,37.1,25.0,30.16,WSW,246,2.0,7.0,62,0.00,,,0.00,weatherlink.com 1.10,2013-02-26 21:46:00,
2013-02-26 17:01:00,36.8,25.0,30.15,SW,228,3.0,9.0,62,0.00,,,0.00,weatherlink.com 1.10,2013-02-26 22:01:00,
2013-02-26 17:16:00,36.5,25.0,30.15,SE,126,3.0,6.0,64,0.00,,,0.00,weatherlink.com 1.10,2013-02-26 22:16:00,
2013-02-26 17:31:00,36.0,26.0,30.14,SSW,193,4.0,5.0,66,0.00,,,0.00,weatherlink.com 1.10,2013-02-26 22:31:00,
2013-02-26 17:46:00,35.6,26.0,30.14,South,188,2.0,7.0,67,0.00,,,0.00,weatherlink.com 1.10,2013-02-26 22:46:00,
2013-02-26 18:01:00,35.2,26.0,30.14,SSE,159,2.0,8.0,69,0.00,,,0.00,weatherlink.com 1.10,2013-02-26 23:01:00,
2013-02-26 18:16:00,35.0,26.0,30.14,SSE,150,3.0,6.0,69,0.00,,,0.00,weatherlink.com 1.10,2013-02-26 23:16:00,
2013-02-26 18:31:00,34.8,26.0,30.15,SSW,211,3.0,8.0,69,0.00,,,0.00,weatherlink.com 1.10,2013-02-26 23:31:00,
2013-02-26 18:46:00,34.6,26.0,30.14,WSW,241,2.0,6.0,71,0.00,,,0.00,weatherlink.com 1.10,2013-02-26 23:46:00,
2013-02-26 19:01:00,34.5,26.0,30.15,WSW,247,0.0,6.0,72,0.00,,,0.00,weatherlink.com 1.10,2013-02-27 00:01:00,
2013-02-26 19:16:00,34.4,27.0,30.14,ENE,78,3.0,7.0,73,0.00,,,0.00,weatherlink.com 1.10,2013-02-27 00:16:00,
2013-02-26 19:31:00,34.3,26.0,30.14,WSW,238,2.0,8.0,72,0.00,,,0.00,weatherlink.com 1.10,2013-02-27 00:31:00,
2013-02-26 19:46:00,34.1,26.0,30.13,East,92,2.0,7.0,72,0.00,,,0.00,weatherlink.com 1.10,2013-02-27 00:46:00,
2013-02-26 20:01:00,34.0,26.0,30.12,South,178,2.0,7.0,72,0.00,,,0.00,weatherlink.com 1.10,2013-02-27 01:01:00,
2013-02-26 20:16:00,33.8,25.0,30.12,SSW,207,1.0,7.0,71,0.00,,,0.00,weatherlink.com 1.10,2013-02-27 01:16:00,
2013-02-26 20:31:00,33.7,24.0,30.11,SSE,154,0.0,6.0,67,0.00,,,0.00,weatherlink.com 1.10,2013-02-27 01:31:00,
2013-02-26 20:46:00,33.8,23.0,30.10,ENE,78,1.0,4.0,66,0.00,,,0.00,weatherlink.com 1.10,2013-02-27 01:46:00,
2013-02-26 21:01:00,33.8,22.0,30.10,ENE,70,2.0,6.0,63,0.00,,,0.00,weatherlink.com 1.10,2013-02-27 02:01:00,
2013-02-26 21:16:00,33.7,23.0,30.09,ESE,103,1.0,7.0,65,0.00,,,0.00,weatherlink.com 1.10,2013-02-27 02:16:00,
2013-02-26 21:31:00,33.6,24.0,30.09,SSW,202,2.0,8.0,67,0.00,,,0.00,weatherlink.com 1.10,2013-02-27 02:31:00,
2013-02-26 21:47:00,33.5,24.0,30.07,North,9,0.0,6.0,68,0.00,,,0.00,weatherlink.com 1.10,2013-02-27 02:47:00,
2013-02-26 22:02:00,33.4,24.0,30.06,WNW,301,2.0,4.0,68,0.00,,,0.00,weatherlink.com 1.10,2013-02-27 03:02:00,
2013-02-26 22:17:00,33.3,24.0,30.04,East,82,3.0,7.0,68,0.00,,,0.00,weatherlink.com 1.10,2013-02-27 03:17:00,
2013-02-26 22:32:00,33.2,24.0,30.05,North,355,1.0,11.0,68,0.00,,,0.00,weatherlink.com 1.10,2013-02-27 03:32:00,
2013-02-26 22:47:00,32.9,24.0,30.04,South,190,4.0,6.0,71,0.00,,,0.00,weatherlink.com 1.10,2013-02-27 03:47:00,
2013-02-26 23:02:00,31.6,25.0,30.03,North,349,2.0,7.0,77,0.00,,,0.00,weatherlink.com 1.10,2013-02-27 04:02:00,
2013-02-26 23:17:00,30.5,26.0,30.02,WSW,253,0.0,6.0,83,0.00,,,0.00,weatherlink.com 1.10,2013-02-27 04:17:00,
2013-02-26 23:32:00,29.7,26.0,30.02,SSE,155,1.0,4.0,87,0.00,,,0.00,weatherlink.com 1.10,2013-02-27 04:32:00,
2013-02-26 23:47:00,29.1,27.0,29.99,ESE,117,1.0,5.0,91,0.00,,,0.00,weatherlink.com 1.10,2013-02-27 04:47:00,